platform_code,time,latitude,longitude,sst,slp,observation_depth
,UTC,degrees_north,degrees_east,Deg C,hPa,
4101780,2020-02-10T17:00:00Z,13.8382,-57.436,26.84,1018.4,0.0
4101780,2020-02-10T17:59:00Z,13.8394,-57.4404,26.85,1017.5,0.0
4101780,2020-02-10T19:00:00Z,13.841,-57.4438,26.85,1016.9,0.0
4101780,2020-02-10T19:59:00Z,13.8432,-57.4456,26.84,1016.5,0.0
4101780,2020-02-10T21:00:00Z,13.8444,-57.4454,26.82,1016.8,0.0
4101780,2020-02-10T22:00:00Z,13.845,-57.4458,26.82,1017.0,0.0
4101780,2020-02-10T23:00:00Z,13.8464,-57.4464,26.81,1017.4,0.0
4101780,2020-02-11T00:00:00Z,13.8474,-57.4482,26.81,1017.7,0.0
4101780,2020-02-11T01:00:00Z,13.8488,-57.4516,26.81,1018.1,0.0
4101780,2020-02-11T01:59:00Z,13.849,-57.4568,26.8,1018.4,0.0
4101780,2020-02-11T03:00:00Z,13.85,-57.4632,26.8,1018.3,0.0
4101780,2020-02-11T03:59:00Z,13.852,-57.4688,26.79,1018.1,0.0
4101780,2020-02-11T05:00:00Z,13.8542,-57.4754,26.8,1017.5,0.0
4101780,2020-02-11T06:00:00Z,13.8568,-57.481,26.79,1016.8,0.0
4101780,2020-02-11T07:00:00Z,13.8602,-57.484,26.79,1016.3,0.0
4101780,2020-02-11T08:00:00Z,13.8618,-57.4832,26.78,1016.2,0.0
4101780,2020-02-11T09:00:00Z,13.8624,-57.4818,26.79,1016.2,0.0
4101780,2020-02-11T09:59:00Z,13.8628,-57.4828,26.77,1016.7,0.0
4101780,2020-02-11T11:00:00Z,13.8632,-57.4844,26.77,1017.1,0.0
4101780,2020-02-11T11:59:00Z,13.8652,-57.4868,26.78,1017.7,0.0
4101780,2020-02-11T12:59:00Z,13.8694,-57.4904,26.79,1018.5,0.0
4101780,2020-02-11T13:59:00Z,13.8728,-57.4942,26.81,1018.9,0.0
4101780,2020-02-11T15:00:00Z,13.8754,-57.4978,26.82,1018.6,0.0
4101780,2020-02-11T15:59:00Z,13.8762,-57.5012,26.84,1018.0,0.0
4101780,2020-02-11T17:00:00Z,13.8772,-57.505,26.85,1017.3,0.0
4101780,2020-02-11T17:58:00Z,13.8786,-57.5086,26.87,1016.3,0.0
4101780,2020-02-11T19:00:00Z,13.8798,-57.511,26.86,1015.7,0.0
4101780,2020-02-11T19:59:00Z,13.8812,-57.5124,26.85,1015.5,0.0
4101780,2020-02-11T21:00:00Z,13.8814,-57.5146,26.84,1015.6,0.0
4101780,2020-02-11T21:57:00Z,13.8814,-57.5178,26.83,1015.7,0.0
4101780,2020-02-11T23:00:00Z,13.8816,-57.5196,26.83,1016.1,0.0
4101780,2020-02-12T00:00:00Z,13.8824,-57.5228,26.82,1016.8,0.0
4101780,2020-02-12T01:00:00Z,13.8826,-57.5268,26.81,1017.4,0.0
4101780,2020-02-12T01:59:00Z,13.8818,-57.5312,26.81,1017.4,0.0
4101780,2020-02-12T03:00:00Z,13.8812,-57.5354,26.81,1017.3,0.0
4101780,2020-02-12T04:00:00Z,13.8814,-57.54,26.8,1017.2,0.0
4101780,2020-02-12T04:59:00Z,13.882,-57.545,26.79,1016.5,0.0
4101780,2020-02-12T05:59:00Z,13.8834,-57.5482,26.77,1015.9,0.0
4101780,2020-02-12T07:00:00Z,13.8854,-57.5488,26.79,1015.6,0.0
4101780,2020-02-12T08:00:00Z,13.8874,-57.548,26.77,1015.4,0.0
4101780,2020-02-12T09:00:00Z,13.8872,-57.548,26.77,1015.6,0.0
4101780,2020-02-12T09:57:00Z,13.8854,-57.5496,26.77,1015.8,0.0
4101780,2020-02-12T11:00:00Z,13.8846,-57.5522,26.76,1016.2,0.0
4101780,2020-02-12T11:58:00Z,13.8838,-57.5564,26.77,1016.8,0.0
4101780,2020-02-12T13:00:00Z,13.883,-57.5628,26.78,1017.6,0.0
4101780,2020-02-12T14:00:00Z,13.8826,-57.569,26.79,1018.1,0.0
4101780,2020-02-12T15:00:00Z,13.8814,-57.5752,26.81,1017.8,0.0
4101780,2020-02-12T15:58:00Z,13.8802,-57.582,26.81,1017.3,0.0
4101780,2020-02-12T17:00:00Z,13.8792,-57.5888,26.81,1016.6,0.0
4101780,2020-02-12T17:58:00Z,13.8776,-57.5956,26.81,1015.9,0.0
4101780,2020-02-12T19:00:00Z,13.8766,-57.6018,26.83,1015.3,0.0
4101780,2020-02-12T20:00:00Z,13.876,-57.6068,26.83,1015.4,0.0
4101780,2020-02-12T21:00:00Z,13.8744,-57.611,26.82,1015.6,0.0
4101780,2020-02-12T21:59:00Z,13.8718,-57.6146,26.81,1016.0,0.0
4101780,2020-02-12T23:00:00Z,13.8704,-57.6196,26.8,1016.5,0.0
4101780,2020-02-13T00:00:00Z,13.8696,-57.6258,26.79,1016.8,0.0
4101780,2020-02-13T01:00:00Z,13.8696,-57.6326,26.79,1017.5,0.0
4101780,2020-02-13T02:00:00Z,13.8696,-57.6406,26.77,1017.5,0.0
4101780,2020-02-13T02:59:00Z,13.8704,-57.6474,26.77,1017.1,0.0
4101780,2020-02-13T04:00:00Z,13.873,-57.6526,26.78,1017.0,0.0
4101780,2020-02-13T04:59:00Z,13.8748,-57.6566,26.77,1016.5,0.0
4101780,2020-02-13T06:00:00Z,13.8772,-57.6598,26.75,1015.9,0.0
4101780,2020-02-13T07:00:00Z,13.8792,-57.6616,26.76,1015.1,0.0
4101780,2020-02-13T07:59:00Z,13.8806,-57.6626,26.77,1015.0,0.0
4101780,2020-02-13T09:00:00Z,13.8806,-57.6628,26.77,1014.8,0.0
4101780,2020-02-13T10:00:00Z,13.879,-57.665,26.76,1015.2,0.0
4101780,2020-02-13T11:00:00Z,13.8766,-57.6692,26.75,1015.6,0.0
4101780,2020-02-13T12:00:00Z,13.8762,-57.6752,26.75,1016.3,0.0
4101780,2020-02-13T12:59:00Z,13.8768,-57.6824,26.77,1017.2,0.0
4101780,2020-02-13T14:00:00Z,13.878,-57.6894,26.78,1017.5,0.0
4101780,2020-02-13T15:00:00Z,13.879,-57.6954,26.8,1017.1,0.0
4101780,2020-02-13T15:58:00Z,13.8812,-57.7018,26.82,1016.6,0.0
4101780,2020-02-13T17:00:00Z,13.8832,-57.7058,26.83,1016.1,0.0
4101780,2020-02-13T18:00:00Z,13.8856,-57.7082,26.84,1015.2,0.0
4101780,2020-02-13T19:00:00Z,13.887,-57.7104,26.83,1014.7,0.0
4101780,2020-02-13T19:59:00Z,13.8866,-57.7144,26.82,1014.9,0.0
4101780,2020-02-13T21:00:00Z,13.8868,-57.7186,26.8,1014.9,0.0
4101780,2020-02-13T22:00:00Z,13.8872,-57.7246,26.79,1015.1,0.0
4101780,2020-02-13T23:00:00Z,13.8882,-57.7324,26.77,1015.6,0.0
4101780,2020-02-13T23:58:00Z,13.8912,-57.7396,26.75,1016.1,0.0
4101780,2020-02-14T01:00:00Z,13.8948,-57.7454,26.76,1016.6,0.0
4101780,2020-02-14T01:59:00Z,13.8986,-57.7518,26.76,1016.8,0.0
4101780,2020-02-14T03:00:00Z,13.9026,-57.757,26.74,1016.6,0.0
4101780,2020-02-14T04:00:00Z,13.9064,-57.7628,26.75,1016.3,0.0
4101780,2020-02-14T05:00:00Z,13.9098,-57.7664,26.75,1016.1,0.0
4101780,2020-02-14T06:00:00Z,13.9132,-57.7692,26.74,1015.5,0.0
4101780,2020-02-14T07:00:00Z,13.9158,-57.7708,26.74,1015.3,0.0
4101780,2020-02-14T08:00:00Z,13.9178,-57.7736,26.73,1015.1,0.0
4101780,2020-02-14T09:00:00Z,13.9188,-57.7774,26.73,1015.0,0.0
4101780,2020-02-14T09:58:00Z,13.9196,-57.784,26.72,1015.1,0.0
4101780,2020-02-14T11:00:00Z,13.9222,-57.7914,26.72,1016.8,0.0
4101780,2020-02-14T11:58:00Z,13.9264,-57.7992,26.71,1017.4,0.0
4101780,2020-02-14T12:59:00Z,13.9298,-57.804,26.67,1017.6,0.0
4101780,2020-02-14T14:00:00Z,13.9348,-57.8102,26.67,1018.0,0.0
4101780,2020-02-14T15:00:00Z,13.9406,-57.8164,26.68,1017.4,0.0
4101780,2020-02-14T15:59:00Z,13.9476,-57.8218,26.7,1017.0,0.0
4101780,2020-02-14T17:00:00Z,13.9542,-57.8252,26.71,1016.9,0.0
4101780,2020-02-14T17:59:00Z,13.9602,-57.8286,26.69,1016.4,0.0
4101780,2020-02-14T19:00:00Z,13.9648,-57.8314,26.7,1015.7,0.0
4101780,2020-02-14T19:59:00Z,13.9686,-57.833,26.68,1015.4,0.0
4101780,2020-02-14T21:00:00Z,13.9722,-57.8352,26.69,1016.2,0.0
4101780,2020-02-14T22:00:00Z,13.976,-57.8384,26.71,1016.2,0.0
4101780,2020-02-15T01:00:00Z,13.988,-57.8542,26.7,1017.3,0.0
4101780,2020-02-15T01:59:00Z,13.9934,-57.8584,26.65,1017.2,0.0
4101780,2020-02-15T03:00:00Z,13.9982,-57.8634,26.65,1017.1,0.0
4101780,2020-02-15T05:00:00Z,14.0078,-57.87,26.65,1016.5,0.0
4101780,2020-02-15T06:00:00Z,14.0118,-57.8724,26.65,1016.2,0.0
4101780,2020-02-15T07:00:00Z,14.0154,-57.8748,26.63,1015.8,0.0
4101780,2020-02-15T08:00:00Z,14.018,-57.877,26.64,1015.5,0.0
4101780,2020-02-15T09:00:00Z,14.0194,-57.8806,26.69,1015.1,0.0
4101780,2020-02-15T09:59:00Z,14.0206,-57.8846,26.64,1016.0,0.0
4101780,2020-02-15T11:00:00Z,14.0228,-57.8884,26.63,1016.5,0.0
4101780,2020-02-15T12:00:00Z,14.0258,-57.8924,26.63,1017.2,0.0
4101780,2020-02-15T13:00:00Z,14.0302,-57.8968,26.65,1017.7,0.0
4101780,2020-02-15T13:59:00Z,14.0354,-57.9018,26.66,1017.6,0.0
4101780,2020-02-15T14:59:00Z,14.0398,-57.9068,26.66,1017.2,0.0
4101780,2020-02-15T16:00:00Z,14.0438,-57.913,26.66,1016.1,0.0
4101780,2020-02-15T17:00:00Z,14.0476,-57.9198,26.67,1016.1,0.0
4101780,2020-02-15T17:59:00Z,14.0514,-57.926,26.66,1015.5,0.0
4101780,2020-02-15T18:59:00Z,14.0536,-57.9316,26.66,1014.2,0.0
4101780,2020-02-15T20:00:00Z,14.0552,-57.9378,26.64,1014.2,0.0
4101780,2020-02-15T20:59:00Z,14.0564,-57.943,26.63,1014.6,0.0
4101780,2020-02-15T22:00:00Z,14.0578,-57.948,26.62,1015.1,0.0
4101780,2020-02-15T23:00:00Z,14.0602,-57.954,26.6,1015.2,0.0
4101780,2020-02-15T23:59:00Z,14.0638,-57.9602,26.62,1016.3,0.0
4101780,2020-02-16T01:00:00Z,14.0682,-57.9658,26.6,1016.7,0.0
4101780,2020-02-16T02:00:00Z,14.0746,-57.9726,26.6,1016.2,0.0
4101780,2020-02-16T03:00:00Z,14.082,-57.9796,26.6,1015.8,0.0
4101780,2020-02-16T03:59:00Z,14.0892,-57.986,26.6,1015.8,0.0
4101780,2020-02-16T05:00:00Z,14.0942,-57.99,26.59,1015.0,0.0
4101780,2020-02-16T06:00:00Z,14.0966,-57.9938,26.59,1014.1,0.0
4101780,2020-02-16T07:00:00Z,14.0984,-57.999,26.59,1013.8,0.0
4101780,2020-02-16T07:59:00Z,14.101,-58.0036,26.58,1014.3,0.0
4101780,2020-02-16T09:00:00Z,14.1054,-58.0072,26.57,1014.1,0.0
4101780,2020-02-16T10:00:00Z,14.1104,-58.0098,26.57,1014.7,0.0
4101780,2020-02-16T11:00:00Z,14.115,-58.0132,26.57,1014.8,0.0
4101780,2020-02-16T12:00:00Z,14.1202,-58.0164,26.59,1015.5,0.0
4101780,2020-02-16T13:00:00Z,14.1262,-58.0194,26.58,1016.0,0.0
4101780,2020-02-16T13:59:00Z,14.1344,-58.023,26.57,1016.7,0.0
4101780,2020-02-16T15:00:00Z,14.1422,-58.0272,26.59,1016.5,0.0
4101780,2020-02-16T15:59:00Z,14.1504,-58.0322,26.61,1016.0,0.0
4101780,2020-02-16T17:00:00Z,14.1582,-58.0366,26.6,1015.3,0.0
4101780,2020-02-16T18:00:00Z,14.1642,-58.0394,26.6,1014.3,0.0
4101780,2020-02-16T19:00:00Z,14.1686,-58.042,26.61,1013.6,0.0
4101780,2020-02-16T19:59:00Z,14.171,-58.044,26.61,1013.7,0.0
4101780,2020-02-16T21:00:00Z,14.1736,-58.046,26.59,1014.6,0.0
4101780,2020-02-16T21:59:00Z,14.1764,-58.0472,26.59,1015.0,0.0
4101780,2020-02-16T23:00:00Z,14.1788,-58.0468,26.59,1014.9,0.0
4101780,2020-02-17T00:00:00Z,14.1802,-58.0458,26.59,1015.2,0.0
4101780,2020-02-17T01:00:00Z,14.1816,-58.0466,26.57,1015.3,0.0
4101780,2020-02-17T02:00:00Z,14.1824,-58.0478,26.58,1015.1,0.0
4101780,2020-02-17T03:00:00Z,14.1846,-58.0502,26.57,1015.1,0.0
4101780,2020-02-17T04:00:00Z,14.1866,-58.0536,26.57,1015.0,0.0
4101780,2020-02-17T04:59:00Z,14.1876,-58.058,26.57,1014.5,0.0
4101780,2020-02-17T06:00:00Z,14.1884,-58.0632,26.56,1013.6,0.0
4101780,2020-02-17T06:59:00Z,14.1882,-58.0694,26.57,1013.3,0.0
4101780,2020-02-17T08:00:00Z,14.1886,-58.0754,26.56,1013.2,0.0
4101780,2020-02-17T09:00:00Z,14.1908,-58.0796,26.56,1013.7,0.0
4101780,2020-02-17T09:59:00Z,14.193,-58.0834,26.56,1014.2,0.0
4101780,2020-02-17T11:00:00Z,14.1964,-58.086,26.56,1014.9,0.0
4101780,2020-02-17T11:59:00Z,14.201,-58.0906,26.56,1015.7,0.0
4101780,2020-02-17T12:59:00Z,14.205,-58.0944,26.57,1016.5,0.0
4101780,2020-02-17T14:00:00Z,14.2102,-58.0986,26.59,1017.0,0.0
4101780,2020-02-17T15:00:00Z,14.2154,-58.1056,26.59,1016.8,0.0
4101780,2020-02-17T16:00:00Z,14.2202,-58.112,26.62,1016.1,0.0
4101780,2020-02-17T17:00:00Z,14.2246,-58.1192,26.65,1015.4,0.0
4101780,2020-02-17T17:59:00Z,14.2288,-58.1276,26.65,1014.7,0.0
4101780,2020-02-17T19:00:00Z,14.2316,-58.135,26.64,1014.3,0.0
4101780,2020-02-17T20:00:00Z,14.234,-58.1412,26.64,1014.3,0.0
4101780,2020-02-17T21:00:00Z,14.2358,-58.1456,26.62,1014.6,0.0
4101780,2020-02-17T21:59:00Z,14.2366,-58.1484,26.6,1014.7,0.0
4101780,2020-02-17T23:00:00Z,14.2368,-58.1522,26.6,1015.3,0.0
4101780,2020-02-17T23:59:00Z,14.238,-58.1568,26.59,1016.1,0.0
4101780,2020-02-18T01:00:00Z,14.2402,-58.161,26.59,1016.6,0.0
4101780,2020-02-18T01:59:00Z,14.244,-58.1642,26.58,1016.8,0.0
4101780,2020-02-18T03:00:00Z,14.247,-58.1686,26.58,1016.7,0.0
4101780,2020-02-18T04:00:00Z,14.2502,-58.1728,26.58,1016.4,0.0
4101780,2020-02-18T05:00:00Z,14.2532,-58.177,26.57,1016.0,0.0
4101780,2020-02-18T05:58:00Z,14.2568,-58.1818,26.58,1015.6,0.0
4101780,2020-02-18T07:00:00Z,14.261,-58.1884,26.57,1015.1,0.0
4101780,2020-02-18T07:59:00Z,14.265,-58.1944,26.57,1014.8,0.0
4101780,2020-02-18T09:00:00Z,14.2692,-58.1996,26.57,1015.3,0.0
4101780,2020-02-18T10:00:00Z,14.2744,-58.2044,26.56,1015.9,0.0
4101780,2020-02-18T10:59:00Z,14.2772,-58.2082,26.56,1016.5,0.0
4101780,2020-02-18T12:00:00Z,14.279,-58.211,26.56,1017.2,0.0
4101780,2020-02-18T13:00:00Z,14.2786,-58.2142,26.58,1017.8,0.0
4101780,2020-02-18T13:59:00Z,14.2774,-58.2184,26.6,1018.0,0.0
4101780,2020-02-18T15:00:00Z,14.277,-58.2226,26.62,1017.7,0.0
4101780,2020-02-18T16:00:00Z,14.2776,-58.2278,26.63,1016.8,0.0
4101780,2020-02-18T17:00:00Z,14.2794,-58.2346,26.65,1016.1,0.0
4101780,2020-02-18T17:59:00Z,14.282,-58.2432,26.68,1015.5,0.0
4101780,2020-02-18T18:59:00Z,14.2856,-58.2532,26.67,1015.1,0.0
4101780,2020-02-18T19:59:00Z,14.2898,-58.2628,26.66,1014.9,0.0
4101780,2020-02-18T21:00:00Z,14.2928,-58.2716,26.65,1015.0,0.0
4101780,2020-02-18T21:59:00Z,14.2948,-58.28,26.62,1015.1,0.0
4101780,2020-02-18T23:00:00Z,14.297,-58.2858,26.62,1015.4,0.0
4101780,2020-02-18T23:59:00Z,14.3002,-58.2908,26.61,1016.0,0.0
4101780,2020-02-19T01:00:00Z,14.302,-58.2952,26.6,1016.7,0.0
4101780,2020-02-19T01:58:00Z,14.3048,-58.3,26.6,1017.2,0.0
4101780,2020-02-19T03:00:00Z,14.3086,-58.3034,26.6,1017.2,0.0
4101780,2020-02-19T04:00:00Z,14.3132,-58.3068,26.59,1016.8,0.0
4101780,2020-02-19T05:00:00Z,14.3182,-58.312,26.6,1015.8,0.0
4101780,2020-02-19T05:58:00Z,14.3252,-58.3174,26.59,1015.1,0.0
4101780,2020-02-19T07:00:00Z,14.331,-58.322,26.6,1014.7,0.0
4101780,2020-02-19T07:59:00Z,14.3366,-58.3256,26.59,1014.5,0.0
4101780,2020-02-19T09:00:00Z,14.3412,-58.3302,26.59,1014.9,0.0
4101780,2020-02-19T09:59:00Z,14.3452,-58.3338,26.59,1015.6,0.0
4101780,2020-02-19T10:59:00Z,14.3482,-58.3382,26.57,1016.3,0.0
4101780,2020-02-19T11:59:00Z,14.3498,-58.3428,26.57,1017.3,0.0
4101780,2020-02-19T13:00:00Z,14.3506,-58.3468,26.58,1017.6,0.0
4101780,2020-02-19T14:00:00Z,14.3506,-58.3514,26.6,1017.9,0.0
4101780,2020-02-19T15:00:00Z,14.3522,-58.3556,26.6,1017.6,0.0
4101780,2020-02-19T15:59:00Z,14.3548,-58.3616,26.6,1016.8,0.0
4101780,2020-02-19T17:00:00Z,14.3568,-58.3684,26.63,1016.2,0.0
4101780,2020-02-19T17:57:00Z,14.3596,-58.3752,26.63,1015.2,0.0
4101780,2020-02-19T19:00:00Z,14.362,-58.3814,26.63,1014.5,0.0
4101780,2020-02-19T19:58:00Z,14.364,-58.389,26.62,1014.7,0.0
4101780,2020-02-19T21:00:00Z,14.3668,-58.3968,26.62,1015.0,0.0
4101780,2020-02-19T22:00:00Z,14.3704,-58.4046,26.61,1015.1,0.0
4101780,2020-02-19T23:00:00Z,14.3712,-58.4124,26.61,1015.7,0.0
4101780,2020-02-19T23:59:00Z,14.3712,-58.419,26.61,1016.5,0.0
4101780,2020-02-20T01:00:00Z,14.372,-58.4248,26.6,1017.0,0.0
4101780,2020-02-20T02:00:00Z,14.3734,-58.43,26.61,1017.2,0.0
4101780,2020-02-20T03:00:00Z,14.3746,-58.4356,26.6,1017.0,0.0
4101780,2020-02-20T03:59:00Z,14.3762,-58.4408,26.6,1016.6,0.0
4101780,2020-02-20T05:00:00Z,14.3792,-58.4456,26.6,1016.1,0.0
4101780,2020-02-20T06:00:00Z,14.3812,-58.4496,26.59,1015.0,0.0
4101780,2020-02-20T07:00:00Z,14.3824,-58.4538,26.6,1014.5,0.0
4101780,2020-02-20T07:59:00Z,14.3848,-58.4592,26.59,1014.3,0.0
4101780,2020-02-20T09:00:00Z,14.387,-58.466,26.6,1014.5,0.0
4101780,2020-02-20T10:00:00Z,14.3902,-58.4734,26.59,1014.9,0.0
4101780,2020-02-20T10:59:00Z,14.3938,-58.482,26.58,1015.6,0.0
4101780,2020-02-20T12:00:00Z,14.3972,-58.4886,26.6,1016.4,0.0
4101780,2020-02-20T13:00:00Z,14.4,-58.4946,26.6,1017.0,0.0
4101780,2020-02-20T14:00:00Z,14.404,-58.5004,26.62,1017.1,0.0
4101780,2020-02-20T14:59:00Z,14.4082,-58.505,26.63,1016.5,0.0
4101780,2020-02-20T16:00:00Z,14.4094,-58.5084,26.65,1015.7,0.0
4101780,2020-02-20T17:00:00Z,14.4094,-58.5116,26.66,1014.9,0.0
4101780,2020-02-20T17:59:00Z,14.4088,-58.5148,26.69,1013.8,0.0
4101780,2020-02-20T19:00:00Z,14.4082,-58.5192,26.69,1013.1,0.0
4101780,2020-02-20T20:00:00Z,14.4064,-58.525,26.68,1012.8,0.0
4101780,2020-02-20T21:00:00Z,14.4048,-58.532,26.67,1013.3,0.0
4101780,2020-02-20T21:59:00Z,14.4048,-58.5396,26.65,1013.8,0.0
4101780,2020-02-20T23:00:00Z,14.4054,-58.5484,26.65,1014.4,0.0
4101780,2020-02-21T00:00:00Z,14.4066,-58.5578,26.64,1015.1,0.0
4101780,2020-02-21T01:00:00Z,14.408,-58.5668,26.63,1015.6,0.0
4101780,2020-02-21T01:59:00Z,14.4092,-58.5748,26.63,1015.9,0.0
4101780,2020-02-21T03:00:00Z,14.4114,-58.5818,26.63,1015.9,0.0
4101780,2020-02-21T03:59:00Z,14.4122,-58.5878,26.62,1015.5,0.0
4101780,2020-02-21T05:00:00Z,14.412,-58.5918,26.63,1015.0,0.0
4101780,2020-02-21T05:59:00Z,14.412,-58.596,26.63,1014.3,0.0
4101780,2020-02-21T06:59:00Z,14.4128,-58.6,26.63,1013.7,0.0
4101780,2020-02-21T08:00:00Z,14.413,-58.6034,26.62,1013.6,0.0
4101780,2020-02-21T09:00:00Z,14.412,-58.6076,26.62,1013.7,0.0
4101780,2020-02-21T09:59:00Z,14.4122,-58.6122,26.63,1014.4,0.0
4101780,2020-02-21T11:00:00Z,14.4122,-58.6174,26.63,1015.1,0.0
4101780,2020-02-21T11:59:00Z,14.4116,-58.6232,26.63,1015.8,0.0
4101780,2020-02-21T13:00:00Z,14.4098,-58.629,26.66,1016.6,0.0
4101780,2020-02-21T13:59:00Z,14.408,-58.6358,26.69,1017.1,0.0
4101780,2020-02-21T15:00:00Z,14.4056,-58.6414,26.74,1016.7,0.0
4101780,2020-02-21T16:00:00Z,14.4022,-58.6464,26.79,1016.0,0.0
4101780,2020-02-21T17:00:00Z,14.3988,-58.6516,26.83,1014.9,0.0
4101780,2020-02-21T17:59:00Z,14.396,-58.657,26.9,1014.1,0.0
4101780,2020-02-21T19:00:00Z,14.3932,-58.6624,26.92,1013.7,0.0
4101780,2020-02-21T20:00:00Z,14.3912,-58.6688,26.9,1013.7,0.0
4101780,2020-02-21T21:00:00Z,14.3902,-58.6754,26.8,1014.2,0.0
4101780,2020-02-21T22:00:00Z,14.389,-58.6816,26.76,1014.4,0.0
4101780,2020-02-22T00:00:00Z,14.3876,-58.6978,26.72,1015.5,0.0
4101780,2020-02-22T01:00:00Z,14.387,-58.7054,26.69,1016.1,0.0
4101780,2020-02-22T02:00:00Z,14.3858,-58.714,26.68,1016.3,0.0
4101780,2020-02-22T03:00:00Z,14.3848,-58.7216,26.67,1016.3,0.0
4101780,2020-02-22T04:00:00Z,14.3842,-58.7286,26.67,1015.6,0.0
4101780,2020-02-22T05:00:00Z,14.3828,-58.7342,26.67,1015.2,0.0
4101780,2020-02-22T06:00:00Z,14.3818,-58.7392,26.67,1014.3,0.0
4101780,2020-02-22T07:00:00Z,14.3808,-58.7436,26.67,1013.8,0.0
4101780,2020-02-22T08:00:00Z,14.3796,-58.7486,26.66,1013.6,0.0
4101780,2020-02-22T09:00:00Z,14.378,-58.7536,26.66,1013.9,0.0
4101780,2020-02-22T10:00:00Z,14.3766,-58.7588,26.66,1014.4,0.0
4101780,2020-02-22T11:00:00Z,14.3752,-58.7644,26.65,1015.0,0.0
4101780,2020-02-22T12:00:00Z,14.3736,-58.7712,26.67,1015.7,0.0
4101780,2020-02-22T13:00:00Z,14.3704,-58.7778,26.7,1016.3,0.0
4101780,2020-02-22T14:00:00Z,14.3658,-58.7838,26.75,1016.6,0.0
4101780,2020-02-22T15:00:00Z,14.3614,-58.7894,26.85,1016.4,0.0
4101780,2020-02-22T16:00:00Z,14.3578,-58.7954,26.96,1015.8,0.0
4101780,2020-02-22T17:00:00Z,14.3552,-58.801,27.09,1015.0,0.0
4101780,2020-02-22T18:00:00Z,14.354,-58.806,27.22,1014.2,0.0
4101780,2020-02-22T19:00:00Z,14.353,-58.8126,27.33,1013.8,0.0
4101780,2020-02-22T20:00:00Z,14.3512,-58.82,27.29,1013.8,0.0
4101780,2020-02-22T21:00:00Z,14.3488,-58.8288,27.17,1014.0,0.0
4101780,2020-02-22T22:00:00Z,14.3474,-58.8374,27.08,1014.2,0.0
4101780,2020-02-22T23:00:00Z,14.3464,-58.8448,26.99,1014.4,0.0
4101780,2020-02-23T00:00:00Z,14.3452,-58.8512,26.94,1015.3,0.0
4101780,2020-02-23T01:00:00Z,14.3436,-58.8558,26.88,1016.0,0.0
4101780,2020-02-23T02:00:00Z,14.341,-58.8586,26.84,1016.0,0.0
4101780,2020-02-23T03:00:00Z,14.3368,-58.861,26.81,1015.9,0.0
4101780,2020-02-23T04:00:00Z,14.3318,-58.864,26.79,1015.6,0.0
4101780,2020-02-23T05:00:00Z,14.3266,-58.867,26.76,1015.0,0.0
4101780,2020-02-23T05:59:00Z,14.3212,-58.8712,26.74,1014.2,0.0
4101780,2020-02-23T07:00:00Z,14.3156,-58.8762,26.72,1014.1,0.0
4101780,2020-02-23T08:00:00Z,14.3118,-58.8832,26.52,1014.1,0.0
4101780,2020-02-23T09:00:00Z,14.3086,-58.8916,26.48,1014.3,0.0
4101780,2020-02-23T10:00:00Z,14.306,-58.901,26.53,1014.8,0.0
4101780,2020-02-23T11:00:00Z,14.3036,-58.91,26.58,1015.3,0.0
4101780,2020-02-23T12:00:00Z,14.2996,-58.9178,26.66,1016.2,0.0
4101780,2020-02-23T12:59:00Z,14.2946,-58.925,26.68,1017.2,0.0
4101780,2020-02-23T14:00:00Z,14.2892,-58.9308,26.66,1016.9,0.0
4101780,2020-02-23T15:00:00Z,14.2824,-58.9372,26.66,1016.6,0.0
4101780,2020-02-23T16:00:00Z,14.276,-58.9446,26.78,1015.6,0.0
4101780,2020-02-23T17:00:00Z,14.2708,-58.9532,26.91,1014.9,0.0
4101780,2020-02-23T17:59:00Z,14.2668,-58.964,26.86,1013.9,0.0
4101780,2020-02-23T19:00:00Z,14.265,-58.9752,26.95,1013.1,0.0
4101780,2020-02-23T20:00:00Z,14.2646,-58.9866,26.9,1012.8,0.0
4101780,2020-02-23T21:00:00Z,14.2658,-58.997,26.85,1013.2,0.0
4101780,2020-02-23T21:59:00Z,14.2676,-59.0048,26.8,1013.5,0.0
4101780,2020-02-23T23:00:00Z,14.2684,-59.0114,26.77,1013.9,0.0
4101780,2020-02-24T00:00:00Z,14.2692,-59.0168,26.75,1014.8,0.0
4101780,2020-02-24T01:00:00Z,14.2694,-59.0224,26.73,1015.3,0.0
4101780,2020-02-24T01:59:00Z,14.2688,-59.029,26.71,1015.6,0.0
4101780,2020-02-24T03:00:00Z,14.2674,-59.0358,26.69,1015.6,0.0
4101780,2020-02-24T03:59:00Z,14.2648,-59.0426,26.67,1015.5,0.0
4101780,2020-02-24T05:00:00Z,14.263,-59.048,26.66,1015.0,0.0
4101780,2020-02-24T06:00:00Z,14.263,-59.054,26.66,1014.3,0.0
4101780,2020-02-24T07:00:00Z,14.2644,-59.0598,26.63,1013.9,0.0
4101780,2020-02-24T07:59:00Z,14.2672,-59.0648,26.63,1013.9,0.0
4101780,2020-02-24T09:00:00Z,14.2698,-59.0682,26.62,1014.0,0.0
4101780,2020-02-24T09:59:00Z,14.2714,-59.0706,26.62,1014.3,0.0
4101780,2020-02-24T10:59:00Z,14.2702,-59.0726,26.62,1014.9,0.0
4101780,2020-02-24T12:00:00Z,14.2684,-59.0748,26.63,1015.5,0.0
4101780,2020-02-24T13:00:00Z,14.2666,-59.0776,26.66,1016.4,0.0
4101780,2020-02-24T14:00:00Z,14.264,-59.0804,26.66,1017.0,0.0
4101780,2020-02-24T15:00:00Z,14.261,-59.0834,26.69,1016.8,0.0
4101780,2020-02-24T15:59:00Z,14.2588,-59.0862,26.76,1016.2,0.0
4101780,2020-02-24T17:00:00Z,14.2576,-59.09,26.8,1015.3,0.0
4101780,2020-02-24T18:00:00Z,14.2578,-59.094,26.8,1014.9,0.0
4101780,2020-02-24T19:00:00Z,14.258,-59.0964,26.82,1014.0,0.0
4101780,2020-02-24T19:59:00Z,14.2578,-59.0972,26.83,1013.8,0.0
4101780,2020-02-24T21:00:00Z,14.2572,-59.0992,26.82,1014.0,0.0
4101780,2020-02-24T22:00:00Z,14.2564,-59.101,26.78,1014.3,0.0
4101780,2020-02-24T23:00:00Z,14.2538,-59.1034,26.76,1014.8,0.0
4101780,2020-02-24T23:59:00Z,14.25,-59.1068,26.79,1015.3,0.0
4101780,2020-02-25T01:00:00Z,14.2466,-59.1114,26.77,1015.9,0.0
4101780,2020-02-25T02:00:00Z,14.2428,-59.1162,26.75,1016.1,0.0
4101780,2020-02-25T03:00:00Z,14.2388,-59.121,26.73,1015.9,0.0
4101780,2020-02-25T04:00:00Z,14.2352,-59.1248,26.71,1015.7,0.0
4101780,2020-02-25T04:59:00Z,14.2336,-59.1296,26.7,1015.1,0.0
4101780,2020-02-25T06:00:00Z,14.233,-59.134,26.68,1014.7,0.0
4101780,2020-02-25T07:00:00Z,14.234,-59.139,26.66,1014.4,0.0
4101780,2020-02-25T08:00:00Z,14.2328,-59.143,26.65,1014.0,0.0
4101780,2020-02-25T09:00:00Z,14.231,-59.1464,26.64,1014.2,0.0
4101780,2020-02-25T10:00:00Z,14.2292,-59.1502,26.65,1014.9,0.0
4101780,2020-02-25T11:00:00Z,14.2268,-59.1538,26.63,1015.5,0.0
4101780,2020-02-25T11:59:00Z,14.2228,-59.1568,26.65,1015.9,0.0
4101780,2020-02-25T13:00:00Z,14.219,-59.1608,26.67,1016.5,0.0
4101780,2020-02-25T14:00:00Z,14.216,-59.1654,26.71,1017.0,0.0
4101780,2020-02-25T15:00:00Z,14.212,-59.1692,26.79,1016.8,0.0
4101780,2020-02-25T15:59:00Z,14.2078,-59.1728,26.87,1016.0,0.0
4101780,2020-02-25T17:00:00Z,14.204,-59.177,26.95,1015.5,0.0
4101780,2020-02-25T18:00:00Z,14.2006,-59.182,27.08,1014.6,0.0
4101780,2020-02-25T19:00:00Z,14.1974,-59.186,27.1,1014.0,0.0
4101780,2020-02-25T20:00:00Z,14.1934,-59.1894,27.01,1013.6,0.0
4101780,2020-02-25T21:00:00Z,14.1898,-59.192,26.98,1013.9,0.0
4101780,2020-02-25T22:00:00Z,14.1862,-59.1956,26.89,1014.0,0.0
4101780,2020-02-25T23:00:00Z,14.1834,-59.199,26.84,1014.4,0.0
4101780,2020-02-26T00:00:00Z,14.1816,-59.2038,26.85,1015.0,0.0
4101780,2020-02-26T01:00:00Z,14.1796,-59.2088,26.82,1015.5,0.0
4101780,2020-02-26T02:00:00Z,14.1772,-59.2148,26.79,1015.9,0.0
4101780,2020-02-26T03:00:00Z,14.176,-59.2208,26.78,1015.6,0.0
4101780,2020-02-26T04:00:00Z,14.1756,-59.227,26.76,1015.2,0.0
4101780,2020-02-26T05:00:00Z,14.1756,-59.2328,26.74,1014.7,0.0
4101780,2020-02-26T06:00:00Z,14.174,-59.2386,26.72,1013.7,0.0
4101780,2020-02-26T06:59:00Z,14.1718,-59.2424,26.71,1013.3,0.0
4101780,2020-02-26T08:00:00Z,14.1698,-59.2448,26.71,1013.3,0.0
4101780,2020-02-26T08:59:00Z,14.167,-59.2466,26.71,1013.3,0.0
4101780,2020-02-26T10:00:00Z,14.1632,-59.248,26.69,1014.0,0.0
4101780,2020-02-26T11:00:00Z,14.1594,-59.251,26.68,1014.8,0.0
4101780,2020-02-26T11:59:00Z,14.1558,-59.2546,26.69,1015.6,0.0
4101780,2020-02-26T13:00:00Z,14.154,-59.2582,26.7,1016.4,0.0
4101780,2020-02-26T14:00:00Z,14.1524,-59.2624,26.69,1016.9,0.0
4101780,2020-02-26T15:00:00Z,14.1504,-59.268,26.74,1017.0,0.0
4101780,2020-02-26T16:00:00Z,14.1486,-59.2736,26.79,1016.5,0.0
4101780,2020-02-26T17:00:00Z,14.1474,-59.28,27.23,1015.8,0.0
4101780,2020-02-26T18:00:00Z,14.1464,-59.2862,27.14,1015.0,0.0